STARLINK-32941, 63119

Orbit data source: Space-Track

STARLINK-32941, 63119 is a payload satellite owned by SpaceX/Seattle (US) in LEO that was launched on Thu, 27 Feb 2025 UTC via an FALCON 9 launch vehicle from the Air Force Eastern Test Range (AFETR). Payload-class satellites include a variety of spacecraft equipped with specific instruments for various scientific and technological missions. These include communications satellites like Starlink; space stations such as the ISS; scientific satellites like the Hubble; Earth observation satellites from companies like Planet Labs, Umbra, and HawkEye 360; GPS; miniature CubeSats for education and research; and military/defense satellites.

Loading next visibility...
Identifier
63119, 2025-039R
Orbit
LEO
Last TLE update
18 hours ago
Origin
Manufacturer
SpaceX/Seattle
Mission
Operational Commercial Communications
Bus & Motor
STARLINK V2M, Unknown motor
Mass
730 kg wet, ~700 kg dry
Launch date (UTC)
2025-02-27 (2 months ago)
Launch vehicle
FALCON 9
Launch site
Air Force Eastern Test Range (AFETR)
Object type
Payload
Rocket body
Debris
Shape & HBR
Box + 2 Pan, 29 m
Radar Cross Section
33.884 m², Large (>1 m²)

Expand to show TLE details & history

TLE from 18 hours ago
0 STARLINK-32941
1 63119U 25039R   25128.46916964  .00009602  00000-0  23724-3 0  9990
2 63119  43.0050 294.2171 0002781 273.0544  86.9994 15.40646901 11411
Epoch: 2025-05-08T11:15Z
Definitive object data (Epoch: 2025-05-08T11:15:36.256Z)
Latitude
-0.00006°
Longitude
-101.22325°
Altitude
443.875 km
Speed
7.648 km/s
True Right ascension
19h 36m 52s
True Declination
0° 00' 00"
Sunlit
Object was in daylight at TLE epoch
Visualization TLE readout
Latitude
-15.91337°
Longitude
92.15334°
Altitude
446.818 km
Speed
7.645 km/s
Apparent Right ascension
05h 41m 17s
Apparent Declination
-40° 21' 31"
Sunlit
Object is in daylight
Visualization observer readout
Local Sidereal Time
13:23:55
Azimuth
247.468° WSW
Elevation
-41.957°
Doppler factor
1
Orbital elements
Apogee altitude
448.052 km
Perigee altitude
444.256 km
Semi-major axis
6,824.291 km
Eccentricity
0.0002781
Inclination
43.005°
RAAN
294.2171°
Arg. of periapsis
273.0544°
True anomaly
87.03122°
Mean anomaly
86.9994°
Eccentric anomaly
87.01531°
Mean motion
3.84997 °/min
BSTAR
0.00023724
Orbital period
93.51 mins
Loading maneuver chart data...
Loading SW <> Apogee altitude chart data...
Loading historical data...
Loading historical data...
Loading historical data...
Loading historical data...
Loading historical data...
Loading historical data...
Loading historical data...

STARLINK-32941 Visibility forecast

Observer location: undefined°, undefined°

Span
Click to sort rows by Start time (UTC) header in descending order
Start Az.
Max El. time (UTC)
Max El. Az.
Max El.
End time (UTC)
End Az.
6 mins2025-05-09 13:54:16.875Z210.358° SW2025-05-09 13:57:16.875Z148.793° SSE26.317°2025-05-09 14:00:16.875Z87.52° E
5 mins2025-05-09 15:33:16.875Z264.153° W2025-05-09 15:35:16.875Z3.27° NNE43.543°2025-05-09 15:38:16.875Z69.896° E
5 mins2025-05-09 17:11:16.875Z293.281° NW2025-05-09 17:13:16.875Z349.386° N37.04°2025-05-09 17:16:16.875Z76.802° E
5 mins2025-05-09 18:49:16.875Z286.029° WNW2025-05-09 18:51:16.875Z268.758° W42.374°2025-05-09 18:54:16.875Z114.381° SE
|